SL-16 DEB, 39848

Orbit data source: Space-Track

SL-16 DEB, 39848 is space debris in LEO originally from a launch on Fri, 25 Dec 1992 UTC launched from the Tyuratam Missile And Space Complex (TTMTR). Debris objects in space refer to the collection of defunct objects orbiting the Earth. Examples of debris include non-operational satellites, rocket bodies, and fragments generated from explosions, collisions, or faulty payload assembly.

Loading next visibility...
Identifier
39848, 1992-093LA
Orbit
LEO
Country
Flag of CISCIS
Related business
Manufacturer
Unknown
Mission
Spacecraft
Bus & Motor
Unknown
Mass
Unknown
Launch date (UTC)
1992-12-25 (33 years ago)
Launch vehicle
Unknown
Launch site
Tyuratam Missile And Space Complex (TTMTR)
Object type
Payload
Rocket body
Debris
Shape & HBR
Unknown shape, 0.1 m
Radar Cross Section
Small (<0.1 m²)

Expand to show TLE details & history
Last TLE update: 3 days ago

TLE from 3 days ago
0 SL-16 DEB
1 39848U 92093LA  26130.38563495  .00016943  00000-0  12700-2 0  9995
2 39848  71.2117 171.9555 0026346 266.7392  93.0764 15.02431309619443
Epoch: 2026-05-10T09:15Z
TLE epoch observation values (Epoch: 2026-05-10T09:15:18.859Z)
Latitude
-0.00001°
Longitude
164.93745°
Altitude
562.943 km
Speed
7.58 km/s
True Right ascension
11h 27m 49s
True Declination
0° 00' 00"
Sunlit
Object was in full shadow at epoch
Visualization orbit readout
Latitude
Unknown
Longitude
Unknown
Altitude
Unknown
Speed
Unknown
Apparent Right ascension
Unknown
Apparent Declination
Unknown
Sunlit
N/A
Visualization observer readout
Local Sidereal Time
18:40:21
Azimuth
Unknown
Elevation
Unknown
Doppler factor
Unknown
Orbital elements
Apogee altitude
575.492 km
Perigee altitude
538.948 km
Semi-major axis
6,935.357 km
Eccentricity
0.00263
Inclination
71.2117°
RAAN
171.9555°
Arg. of periapsis
266.7392°
True anomaly
93.37781°
Mean anomaly
93.0764°
Eccentric anomaly
93.22711°
Mean motion
3.75785 °/min
Orbital period
95.8 mins
BSTAR
0.00127
Loading maneuver chart data...
Computing Atmospheric mass density...
Loading historical data...
Loading historical data...
Loading historical data...
Loading historical data...
Loading historical data...
Loading historical data...
Loading historical data...

Documentation

Showing up to 5 results
|